Location: Oberkirch
(48.5323°N, 8.0787°E)
Time: 17:20:13
(UTC+00:00)

Cosmos 2322 - Pass Details

Date: 08 November 2025
Orbit: 841 x 852 km, 71.0° (Epoch: 09 December)

Event Time Altitude Azimuth Distance (km) Brightness Sun altitude
Exits shadow 04:49:47 13° 232° (SW) 2,277 5.5 -15.9°
Maximum altitude 04:54:44 49° 305° (NW) 1,087 3.9 -15.1°
Drops below altitude 10° 05:00:14 10° 20° (NNE) 2,474 6.3 -14.2°
Sets 05:02:47 0° 26° (NNE) 3,412 7.1 -13.8°
